| time (UTC) | temp F | wind direction | speed MPH | gust MPH | rain 1hr in | rain 24hr in | rain mn in | humidity % | barometer mb |
| 20260508213048 | 45 | 90 | 7.0 | 7.0 | 0.00 | 0.00 | 0.00 | 80 | 1006.7 |
| 20260508212747 | 45 | 90 | 3.0 | 3.0 | 0.00 | 0.00 | 0.00 | 80 | 1006.7 |
| 20260508212447 | 45 | 0 | 6.0 | 6.0 | 0.00 | 0.00 | 0.00 | 80 | 1006.7 |
| 20260508212147 | 45 | 67 | 3.0 | 3.0 | 0.00 | 0.00 | 0.00 | 80 | 1007.0 |
| 20260508211548 | 45 | 90 | 9.0 | 9.0 | 0.00 | 0.00 | 0.00 | 80 | 1007.0 |
| 20260508211248 | 46 | 67 | 10.0 | 10.0 | 0.00 | 0.00 | 0.00 | 80 | 1006.7 |
| 20260508210947 | 45 | 67 | 8.0 | 8.0 | 0.00 | 0.00 | 0.00 | 80 | 1007.0 |
| 20260508210648 | 45 | 67 | 6.0 | 6.0 | 0.00 | 0.00 | 0.00 | 79 | 1006.7 |
| 20260508205748 | 46 | 67 | 6.0 | 6.0 | 0.00 | 0.00 | 0.00 | 80 | 1006.7 |
| 20260508205447 | 46 | 67 | 10.0 | 10.0 | 0.00 | 0.00 | 0.00 | 79 | 1007.0 |
| 20260508205147 | 46 | 90 | 8.0 | 8.0 | 0.00 | 0.00 | 0.00 | 79 | 1007.0 |
| 20260508204848 | 46 | 67 | 8.0 | 8.0 | 0.00 | 0.00 | 0.00 | 79 | 1006.7 |
| 20260508204248 | 46 | 90 | 8.0 | 8.0 | 0.00 | 0.00 | 0.00 | 79 | 1006.7 |
| 20260508203947 | 46 | 90 | 2.0 | 2.0 | 0.00 | 0.00 | 0.00 | 79 | 1006.7 |
| 20260508203647 | 46 | 67 | 7.0 | 7.0 | 0.00 | 0.00 | 0.00 | 79 | 1006.7 |
| 20260508203347 | 46 | 90 | 8.0 | 8.0 | 0.00 | 0.00 | 0.00 | 79 | 1006.7 |
| 20260508203048 | 46 | 22 | 7.0 | 7.0 | 0.00 | 0.00 | 0.00 | 79 | 1006.7 |
| 20260508202447 | 46 | 45 | 6.0 | 6.0 | 0.00 | 0.00 | 0.00 | 79 | 1006.7 |
| 20260508202147 | 46 | 90 | 4.0 | 4.0 | 0.00 | 0.00 | 0.00 | 79 | 1006.7 |
| 20260508201847 | 46 | 90 | 11.0 | 11.0 | 0.00 | 0.00 | 0.00 | 79 | 1006.7 |
| 20260508201547 | 46 | 337 | 6.0 | 6.0 | 0.00 | 0.00 | 0.00 | 79 | 1006.7 |
| 20260508200947 | 46 | 90 | 8.0 | 8.0 | 0.00 | 0.00 | 0.00 | 79 | 1006.7 |
| 20260508200647 | 47 | 67 | 10.0 | 10.0 | 0.00 | 0.00 | 0.00 | 79 | 1006.5 |
| 20260508200348 | 47 | 45 | 2.0 | 2.0 | 0.00 | 0.00 | 0.00 | 78 | 1006.7 |
| 20260508200048 | 47 | 337 | 9.0 | 9.0 | 0.00 | 0.00 | 0.00 | 78 | 1006.5 |
| 20260508195750 | 47 | 67 | 8.0 | 8.0 | 0.00 | 0.00 | 0.00 | 78 | 1006.5 |
| 20260508194847 | 47 | 90 | 7.0 | 7.0 | 0.00 | 0.00 | 0.00 | 77 | 1006.5 |
| 20260508194248 | 47 | 67 | 3.0 | 3.0 | 0.00 | 0.00 | 0.00 | 77 | 1006.5 |
| 20260508193947 | 47 | 67 | 2.0 | 2.0 | 0.00 | 0.00 | 0.00 | 77 | 1006.2 |
| 20260508193648 | 47 | 0 | 6.0 | 6.0 | 0.00 | 0.00 | 0.00 | 77 | 1006.2 |
| 20260508193350 | 47 | 22 | 7.0 | 8.0 | 0.00 | 0.00 | 0.00 | 77 | 1006.5 |
| 20260508193048 | 47 | 67 | 8.0 | 8.0 | 0.00 | 0.00 | 0.00 | 77 | 1006.2 |
| 20260508192750 | 47 | 337 | 4.0 | 4.0 | 0.00 | 0.00 | 0.00 | 76 | 1006.2 |
| 20260508192148 | 47 | 337 | 5.0 | 5.0 | 0.00 | 0.00 | 0.00 | 76 | 1006.2 |
| 20260508191847 | 48 | 90 | 8.0 | 8.0 | 0.00 | 0.00 | 0.00 | 76 | 1006.2 |
| 20260508191248 | 48 | 67 | 7.0 | 7.0 | 0.00 | 0.00 | 0.00 | 76 | 1006.0 |
| 20260508190948 | 48 | 90 | 3.0 | 3.0 | 0.00 | 0.00 | 0.00 | 75 | 1006.0 |
| 20260508190647 | 48 | 67 | 7.0 | 8.0 | 0.00 | 0.00 | 0.00 | 75 | 1006.2 |
| 20260508190347 | 48 | 337 | 5.0 | 5.0 | 0.00 | 0.00 | 0.00 | 75 | 1006.2 |
| 20260508190047 | 48 | 67 | 5.0 | 5.0 | 0.00 | 0.00 | 0.00 | 75 | 1006.2 |
| 20260508185747 | 48 | 67 | 7.0 | 7.0 | 0.00 | 0.00 | 0.00 | 75 | 1006.0 |
| 20260508184847 | 49 | 0 | 3.0 | 3.0 | 0.00 | 0.00 | 0.00 | 73 | 1006.0 |
| 20260508184548 | 49 | 45 | 3.0 | 3.0 | 0.00 | 0.00 | 0.00 | 73 | 1005.7 |
| 20260508183948 | 49 | 45 | 5.0 | 5.0 | 0.00 | 0.00 | 0.00 | 73 | 1006.0 |
| 20260508183348 | 49 | 45 | 6.0 | 6.0 | 0.00 | 0.00 | 0.00 | 73 | 1005.7 |
| 20260508183048 | 50 | 45 | 11.0 | 11.0 | 0.00 | 0.00 | 0.00 | 73 | 1005.7 |
| 20260508182448 | 50 | 45 | 3.0 | 3.0 | 0.00 | 0.00 | 0.00 | 72 | 1005.7 |
| 20260508181848 | 50 | 22 | 4.0 | 4.0 | 0.00 | 0.00 | 0.00 | 72 | 1005.7 |
| 20260508181550 | 51 | 45 | 2.0 | 2.0 | 0.00 | 0.00 | 0.00 | 72 | 1005.7 |
| 20260508181247 | 51 | 67 | 5.0 | 5.0 | 0.00 | 0.00 | 0.00 | 72 | 1005.7 |
| 20260508180948 | 51 | 45 | 7.0 | 8.0 | 0.00 | 0.00 | 0.00 | 72 | 1005.7 |
| 20260508180648 | 51 | 90 | 4.0 | 4.0 | 0.00 | 0.00 | 0.00 | 71 | 1005.7 |
| 20260508180348 | 51 | 90 | 11.0 | 11.0 | 0.00 | 0.00 | 0.00 | 71 | 1005.5 |
| 20260508175747 | 52 | 45 | 2.0 | 2.0 | 0.00 | 0.00 | 0.00 | 70 | 1005.5 |
| 20260508175448 | 52 | 45 | 5.0 | 5.0 | 0.00 | 0.00 | 0.00 | 70 | 1005.5 |
| 20260508175147 | 53 | 90 | 6.0 | 6.0 | 0.00 | 0.00 | 0.00 | 70 | 1005.5 |
| 20260508174848 | 52 | 90 | 5.0 | 5.0 | 0.00 | 0.00 | 0.00 | 70 | 1005.5 |
| 20260508174546 | 53 | 0 | 8.0 | 8.0 | 0.00 | 0.00 | 0.00 | 70 | 1005.5 |
| 20260508174251 | 53 | 337 | 7.0 | 7.0 | 0.00 | 0.00 | 0.00 | 70 | 1005.5 |
| 20260508173048 | 54 | 67 | 8.0 | 8.0 | 0.00 | 0.00 | 0.00 | 69 | 1005.2 |
| 20260508172747 | 54 | 337 | 6.0 | 6.0 | 0.00 | 0.00 | 0.00 | 68 | 1005.2 |
| 20260508172147 | 55 | 90 | 5.0 | 6.0 | 0.00 | 0.00 | 0.00 | 68 | 1005.2 |
| 20260508171848 | 55 | 67 | 6.0 | 6.0 | 0.00 | 0.00 | 0.00 | 68 | 1005.2 |
| 20260508171547 | 56 | 67 | 8.0 | 8.0 | 0.00 | 0.00 | 0.00 | 67 | 1005.5 |
| 20260508171247 | 56 | 67 | 8.0 | 8.0 | 0.00 | 0.00 | 0.00 | 67 | 1005.2 |
| 20260508170948 | 56 | 67 | 7.0 | 8.0 | 0.00 | 0.00 | 0.00 | 67 | 1005.2 |
| 20260508170048 | 57 | 90 | 2.0 | 2.0 | 0.00 | 0.00 | 0.00 | 66 | 1005.2 |
| 20260508165746 | 57 | 90 | 4.0 | 4.0 | 0.00 | 0.00 | 0.00 | 67 | 1005.2 |
| 20260508165147 | 58 | 90 | 8.0 | 8.0 | 0.00 | 0.00 | 0.00 | 65 | 1005.2 |
| 20260508164847 | 58 | 337 | 2.0 | 2.0 | 0.00 | 0.00 | 0.00 | 65 | 1005.2 |
| 20260508164247 | 60 | 90 | 3.0 | 3.0 | 0.00 | 0.00 | 0.00 | 65 | 1005.2 |
| 20260508163647 | 60 | 45 | 3.0 | 3.0 | 0.00 | 0.00 | 0.00 | 64 | 1005.2 |
| 20260508163347 | 61 | 22 | 2.0 | 2.0 | 0.00 | 0.00 | 0.00 | 65 | 1005.2 |
| 20260508163047 | 62 | 337 | 1.0 | 1.0 | 0.00 | 0.00 | 0.00 | 66 | 1005.2 |
| 20260508162747 | 61 | 45 | 3.0 | 3.0 | 0.00 | 0.00 | 0.00 | 67 | 1005.2 |
| 20260508162448 | 60 | 337 | 8.0 | 8.0 | 0.00 | 0.00 | 0.00 | 66 | 1005.2 |
| 20260508162147 | 60 | 90 | 5.0 | 5.0 | 0.00 | 0.00 | 0.00 | 66 | 1005.2 |
| 20260508161847 | 60 | 90 | 4.0 | 4.0 | 0.00 | 0.00 | 0.00 | 66 | 1005.2 |
| 20260508161251 | 60 | 67 | 8.0 | 8.0 | 0.00 | 0.00 | 0.00 | 64 | 1005.2 |
| 20260508160948 | 60 | 90 | 10.0 | 10.0 | 0.00 | 0.00 | 0.00 | 64 | 1005.2 |
| 20260508160648 | 62 | 67 | 4.0 | 4.0 | 0.00 | 0.00 | 0.00 | 64 | 1005.2 |
| 20260508160347 | 62 | 337 | 1.0 | 2.0 | 0.00 | 0.00 | 0.00 | 66 | 1005.2 |
| 20260508160047 | 61 | 90 | 8.0 | 8.0 | 0.00 | 0.00 | 0.00 | 66 | 1005.2 |
| 20260508155750 | 60 | 67 | 10.0 | 10.0 | 0.00 | 0.00 | 0.00 | 65 | 1005.2 |
| 20260508155448 | 61 | 67 | 6.0 | 6.0 | 0.00 | 0.00 | 0.00 | 65 | 1005.2 |
| 20260508154847 | 60 | 67 | 7.0 | 7.0 | 0.00 | 0.00 | 0.00 | 64 | 1005.2 |
| 20260508154548 | 61 | 90 | 8.0 | 8.0 | 0.00 | 0.00 | 0.00 | 64 | 1005.2 |
| 20260508154248 | 63 | 90 | 3.0 | 4.0 | 0.00 | 0.00 | 0.00 | 65 | 1005.2 |
| 20260508153648 | 62 | 90 | 6.0 | 6.0 | 0.00 | 0.00 | 0.00 | 64 | 1005.2 |
| 20260508153347 | 62 | 90 | 3.0 | 4.0 | 0.00 | 0.00 | 0.00 | 67 | 1005.2 |
| 20260508152747 | 58 | 22 | 2.0 | 2.0 | 0.00 | 0.00 | 0.00 | 65 | 1005.2 |
| 20260508152147 | 57 | 90 | 4.0 | 4.0 | 0.00 | 0.00 | 0.00 | 66 | 1005.2 |
| 20260508151847 | 57 | 45 | 0.0 | 0.0 | 0.00 | 0.00 | 0.00 | 65 | 1005.2 |
| 20260508151548 | 57 | 22 | 1.0 | 1.0 | 0.00 | 0.00 | 0.00 | 65 | 1005.2 |
| 20260508151248 | 57 | 45 | 1.0 | 1.0 | 0.00 | 0.00 | 0.00 | 66 | 1005.2 |
| 20260508150647 | 57 | 0 | 1.0 | 1.0 | 0.00 | 0.00 | 0.00 | 66 | 1005.2 |
| 20260508150348 | 57 | 22 | 2.0 | 2.0 | 0.00 | 0.00 | 0.00 | 66 | 1005.2 |
| 20260508145748 | 57 | 67 | 0.0 | 0.0 | 0.00 | 0.00 | 0.00 | 67 | 1005.2 |
| 20260508145448 | 57 | 45 | 1.0 | 1.0 | 0.00 | 0.00 | 0.00 | 66 | 1005.2 |
| 20260508144848 | 57 | 0 | 0.0 | 0.0 | 0.00 | 0.00 | 0.00 | 66 | 1005.2 |
| 20260508144547 | 57 | 45 | 0.0 | 0.0 | 0.00 | 0.00 | 0.00 | 66 | 1005.2 |
| 20260508144247 | 56 | 337 | 4.0 | 4.0 | 0.00 | 0.00 | 0.00 | 65 | 1005.2 |
| 20260508143948 | 57 | 67 | 4.0 | 4.0 | 0.00 | 0.00 | 0.00 | 65 | 1005.5 |
| 20260508143648 | 57 | 337 | 4.0 | 4.0 | 0.00 | 0.00 | 0.00 | 65 | 1005.5 |
| 20260508143347 | 57 | 22 | 0.0 | 0.0 | 0.00 | 0.00 | 0.00 | 64 | 1005.7 |
| 20260508142447 | 57 | 45 | 0.0 | 0.0 | 0.00 | 0.00 | 0.00 | 64 | 1005.5 |
| 20260508141847 | 58 | 45 | 4.0 | 4.0 | 0.00 | 0.00 | 0.00 | 63 | 1005.7 |
| 20260508141548 | 58 | 90 | 0.0 | 0.0 | 0.00 | 0.00 | 0.00 | 63 | 1005.7 |
| 20260508141248 | 58 | 337 | 2.0 | 2.0 | 0.00 | 0.00 | 0.00 | 63 | 1005.7 |
| 20260508140950 | 58 | 0 | 8.0 | 8.0 | 0.00 | 0.00 | 0.00 | 62 | 1005.7 |
| 20260508140348 | 60 | 337 | 3.0 | 3.0 | 0.00 | 0.00 | 0.00 | 60 | 1005.7 |
| 20260508140048 | 60 | 90 | 1.0 | 1.0 | 0.00 | 0.00 | 0.00 | 57 | 1005.5 |
| 20260508135748 | 61 | 22 | 1.0 | 1.0 | 0.00 | 0.00 | 0.00 | 60 | 1005.7 |
| 20260508135447 | 61 | 315 | 2.0 | 2.0 | 0.00 | 0.00 | 0.00 | 60 | 1005.5 |
| 20260508135147 | 62 | 90 | 0.0 | 0.0 | 0.00 | 0.00 | 0.00 | 60 | 1005.7 |
| 20260508134850 | 63 | 67 | 1.0 | 1.0 | 0.00 | 0.00 | 0.00 | 62 | 1005.7 |
| 20260508134547 | 62 | 67 | 0.0 | 0.0 | 0.00 | 0.00 | 0.00 | 62 | 1005.7 |
| 20260508134247 | 60 | 90 | 2.0 | 2.0 | 0.00 | 0.00 | 0.00 | 63 | 1005.7 |
| 20260508133947 | 60 | 0 | 4.0 | 4.0 | 0.00 | 0.00 | 0.00 | 64 | 1005.5 |
| 20260508133648 | 59 | 315 | 0.0 | 0.0 | 0.00 | 0.00 | 0.00 | 63 | 1005.7 |
| 20260508133347 | 59 | 337 | 1.0 | 2.0 | 0.00 | 0.00 | 0.00 | 63 | 1005.7 |
| 20260508132147 | 58 | 337 | 1.0 | 2.0 | 0.00 | 0.00 | 0.00 | 62 | 1005.7 |
| 20260508131848 | 58 | 90 | 3.0 | 3.0 | 0.00 | 0.00 | 0.00 | 63 | 1005.7 |
| 20260508131547 | 58 | 45 | 3.0 | 3.0 | 0.00 | 0.00 | 0.00 | 63 | 1005.7 |
| 20260508130947 | 58 | 90 | 1.0 | 1.0 | 0.00 | 0.00 | 0.00 | 65 | 1005.7 |
| 20260508130650 | 58 | 0 | 1.0 | 1.0 | 0.00 | 0.00 | 0.00 | 66 | 1006.0 |
| 20260508130347 | 58 | 45 | 0.0 | 0.0 | 0.00 | 0.00 | 0.00 | 64 | 1005.7 |
| 20260508130047 | 58 | 337 | 1.0 | 1.0 | 0.00 | 0.00 | 0.00 | 66 | 1005.7 |
| 20260508125748 | 58 | 67 | 2.0 | 2.0 | 0.00 | 0.00 | 0.00 | 66 | 1005.7 |
| 20260508125147 | 58 | 90 | 4.0 | 4.0 | 0.00 | 0.00 | 0.00 | 66 | 1005.7 |
| 20260508124847 | 58 | 112 | 3.0 | 3.0 | 0.00 | 0.00 | 0.00 | 65 | 1005.7 |
| 20260508123947 | 59 | 112 | 1.0 | 1.0 | 0.00 | 0.00 | 0.00 | 63 | 1005.7 |
| 20260508123648 | 59 | 67 | 2.0 | 2.0 | 0.00 | 0.00 | 0.00 | 63 | 1005.7 |
| 20260508123048 | 59 | 90 | 3.0 | 3.0 | 0.00 | 0.00 | 0.00 | 63 | 1005.7 |
| 20260508122748 | 59 | 0 | 0.0 | 0.0 | 0.00 | 0.00 | 0.00 | 63 | 1005.7 |
| 20260508122450 | 59 | 202 | 1.0 | 1.0 | 0.00 | 0.00 | 0.00 | 64 | 1005.7 |
| 20260508122147 | 59 | 112 | 0.0 | 0.0 | 0.00 | 0.00 | 0.00 | 63 | 1005.7 |
| 20260508121847 | 59 | 45 | 1.0 | 1.0 | 0.00 | 0.00 | 0.00 | 62 | 1005.7 |
| 20260508121547 | 59 | 67 | 5.0 | 5.0 | 0.00 | 0.00 | 0.00 | 63 | 1005.7 |
| 20260508121246 | 59 | 45 | 0.0 | 0.0 | 0.00 | 0.00 | 0.00 | 62 | 1005.7 |
| 20260508120947 | 60 | 90 | 2.0 | 2.0 | 0.00 | 0.00 | 0.00 | 62 | 1005.7 |
| 20260508120047 | 60 | 337 | 2.0 | 2.0 | 0.00 | 0.00 | 0.00 | 63 | 1005.7 |
| 20260508115148 | 58 | 270 | 0.0 | 0.0 | 0.00 | 0.00 | 0.00 | 63 | 1005.7 |
| 20260508114847 | 58 | 180 | 0.0 | 0.0 | 0.00 | 0.00 | 0.00 | 64 | 1005.7 |
| 20260508114550 | 57 | 202 | 3.0 | 3.0 | 0.00 | 0.00 | 0.00 | 62 | 1005.7 |
| 20260508114247 | 57 | 337 | 2.0 | 2.0 | 0.00 | 0.00 | 0.00 | 63 | 1005.7 |
| 20260508113648 | 58 | 292 | 0.0 | 0.0 | 0.00 | 0.00 | 0.00 | 64 | 1005.7 |
| 20260508113348 | 58 | 337 | 1.0 | 1.0 | 0.00 | 0.00 | 0.00 | 64 | 1005.7 |
| 20260508113047 | 59 | 270 | 2.0 | 2.0 | 0.00 | 0.00 | 0.00 | 65 | 1005.7 |
| 20260508112747 | 58 | 22 | 1.0 | 1.0 | 0.00 | 0.00 | 0.00 | 65 | 1005.7 |
| 20260508112148 | 58 | 90 | 2.0 | 2.0 | 0.00 | 0.00 | 0.00 | 64 | 1005.7 |
| 20260508111847 | 58 | 90 | 0.0 | 0.0 | 0.00 | 0.00 | 0.00 | 64 | 1005.7 |
| 20260508111548 | 57 | 135 | 0.0 | 0.0 | 0.00 | 0.00 | 0.00 | 64 | 1006.0 |
| 20260508110947 | 58 | 67 | 1.0 | 1.0 | 0.00 | 0.00 | 0.00 | 64 | 1005.7 |
| 20260508110650 | 58 | 90 | 0.0 | 0.0 | 0.00 | 0.00 | 0.00 | 66 | 1005.7 |
| 20260508110348 | 58 | 270 | 0.0 | 0.0 | 0.00 | 0.00 | 0.00 | 65 | 1005.7 |
| 20260508110047 | 57 | 315 | 0.0 | 0.0 | 0.00 | 0.00 | 0.00 | 65 | 1005.7 |
| 20260508105447 | 58 | 67 | 1.0 | 2.0 | 0.00 | 0.00 | 0.00 | 65 | 1005.7 |
| 20260508105150 | 58 | 112 | 2.0 | 2.0 | 0.00 | 0.00 | 0.00 | 64 | 1005.7 |
| 20260508104847 | 58 | 337 | 1.0 | 1.0 | 0.00 | 0.00 | 0.00 | 65 | 1005.7 |
| 20260508104548 | 57 | 337 | 0.0 | 0.0 | 0.00 | 0.00 | 0.00 | 63 | 1005.7 |
| 20260508104247 | 57 | 67 | 1.0 | 1.0 | 0.00 | 0.00 | 0.00 | 64 | 1005.7 |
| 20260508103948 | 57 | 112 | 1.0 | 1.0 | 0.00 | 0.00 | 0.00 | 64 | 1005.7 |
| 20260508103647 | 57 | 67 | 1.0 | 2.0 | 0.00 | 0.00 | 0.00 | 66 | 1005.7 |
| 20260508103347 | 57 | 337 | 3.0 | 3.0 | 0.00 | 0.00 | 0.00 | 65 | 1006.0 |
| 20260508103050 | 57 | 90 | 2.0 | 2.0 | 0.00 | 0.00 | 0.00 | 66 | 1006.0 |
| 20260508102448 | 56 | 90 | 4.0 | 4.0 | 0.00 | 0.00 | 0.00 | 66 | 1006.0 |
| 20260508102148 | 56 | 45 | 3.0 | 3.0 | 0.00 | 0.00 | 0.00 | 66 | 1006.0 |
| 20260508101847 | 56 | 45 | 0.0 | 0.0 | 0.00 | 0.00 | 0.00 | 67 | 1006.0 |
| 20260508101548 | 56 | 315 | 0.0 | 0.0 | 0.00 | 0.00 | 0.00 | 68 | 1006.0 |
| 20260508100948 | 56 | 270 | 0.0 | 0.0 | 0.00 | 0.00 | 0.00 | 68 | 1006.0 |
| 20260508100650 | 56 | 225 | 1.0 | 1.0 | 0.00 | 0.00 | 0.00 | 67 | 1006.0 |
| 20260508100048 | 55 | 90 | 2.0 | 2.0 | 0.00 | 0.00 | 0.00 | 66 | 1006.0 |
| 20260508095750 | 55 | 270 | 0.0 | 0.0 | 0.00 | 0.00 | 0.00 | 68 | 1006.0 |
| 20260508095447 | 55 | 45 | 0.0 | 0.0 | 0.00 | 0.00 | 0.00 | 67 | 1006.0 |
| 20260508095148 | 55 | 112 | 0.0 | 0.0 | 0.00 | 0.00 | 0.00 | 68 | 1006.0 |
| 20260508094848 | 56 | 112 | 0.0 | 0.0 | 0.00 | 0.00 | 0.00 | 71 | 1006.0 |
| 20260508094547 | 56 | 22 | 1.0 | 1.0 | 0.00 | 0.00 | 0.00 | 71 | 1006.0 |
| 20260508094247 | 55 | 45 | 0.0 | 0.0 | 0.00 | 0.00 | 0.00 | 71 | 1006.0 |
| 20260508093948 | 55 | 90 | 1.0 | 1.0 | 0.00 | 0.00 | 0.00 | 70 | 1006.2 |
| 20260508093650 | 54 | 90 | 2.0 | 2.0 | 0.00 | 0.00 | 0.00 | 70 | 1006.2 |
| 20260508093347 | 54 | 135 | 2.0 | 2.0 | 0.00 | 0.00 | 0.00 | 71 | 1006.2 |
| 20260508092448 | 54 | 90 | 3.0 | 4.0 | 0.00 | 0.00 | 0.00 | 71 | 1006.2 |
| 20260508092147 | 54 | 90 | 4.0 | 4.0 | 0.00 | 0.00 | 0.00 | 72 | 1006.2 |
| 20260508091847 | 54 | 337 | 2.0 | 2.0 | 0.00 | 0.00 | 0.00 | 71 | 1006.2 |
| 20260508091248 | 53 | 90 | 2.0 | 2.0 | 0.00 | 0.00 | 0.00 | 71 | 1006.2 |
| 20260508090947 | 53 | 112 | 0.0 | 0.0 | 0.00 | 0.00 | 0.00 | 71 | 1006.2 |
| 20260508090647 | 53 | 337 | 1.0 | 1.0 | 0.00 | 0.00 | 0.00 | 71 | 1006.2 |
| 20260508090348 | 53 | 90 | 2.0 | 2.0 | 0.00 | 0.00 | 0.00 | 72 | 1006.2 |
| 20260508090048 | 53 | 90 | 0.0 | 0.0 | 0.00 | 0.00 | 0.00 | 73 | 1006.2 |
| 20260508085747 | 53 | 90 | 3.0 | 4.0 | 0.00 | 0.00 | 0.00 | 72 | 1006.5 |
| 20260508085450 | 53 | 67 | 2.0 | 2.0 | 0.00 | 0.00 | 0.00 | 73 | 1006.5 |
| 20260508084847 | 53 | 67 | 1.0 | 1.0 | 0.00 | 0.00 | 0.00 | 74 | 1006.5 |
| 20260508084548 | 53 | 90 | 4.0 | 4.0 | 0.00 | 0.00 | 0.00 | 74 | 1006.5 |
| 20260508084247 | 52 | 67 | 5.0 | 5.0 | 0.00 | 0.00 | 0.00 | 73 | 1006.2 |
| 20260508083948 | 53 | 90 | 4.0 | 4.0 | 0.00 | 0.00 | 0.00 | 73 | 1006.2 |
| 20260508083648 | 53 | 337 | 0.0 | 0.0 | 0.00 | 0.00 | 0.00 | 72 | 1006.2 |
| 20260508083350 | 53 | 112 | 2.0 | 2.0 | 0.00 | 0.00 | 0.00 | 72 | 1006.2 |
| 20260508083048 | 53 | 157 | 0.0 | 0.0 | 0.00 | 0.00 | 0.00 | 72 | 1006.2 |
| 20260508082747 | 53 | 90 | 0.0 | 0.0 | 0.00 | 0.00 | 0.00 | 72 | 1006.2 |
| 20260508082447 | 54 | 22 | 1.0 | 1.0 | 0.00 | 0.00 | 0.00 | 74 | 1006.2 |
| 20260508082147 | 53 | 0 | 0.0 | 0.0 | 0.00 | 0.00 | 0.00 | 73 | 1006.2 |
| 20260508080947 | 52 | 337 | 3.0 | 3.0 | 0.00 | 0.00 | 0.00 | 74 | 1006.2 |
| 20260508080647 | 52 | 67 | 0.0 | 0.0 | 0.00 | 0.00 | 0.00 | 74 | 1006.2 |
| 20260508080347 | 52 | 337 | 3.0 | 3.0 | 0.00 | 0.00 | 0.00 | 75 | 1006.2 |
| 20260508080050 | 52 | 90 | 4.0 | 4.0 | 0.00 | 0.00 | 0.00 | 75 | 1006.2 |
| 20260508075748 | 52 | 67 | 2.0 | 2.0 | 0.00 | 0.00 | 0.00 | 76 | 1006.2 |
| 20260508075148 | 52 | 67 | 2.0 | 2.0 | 0.00 | 0.00 | 0.00 | 77 | 1006.2 |
| 20260508074848 | 51 | 90 | 4.0 | 4.0 | 0.00 | 0.00 | 0.00 | 77 | 1006.2 |
| 20260508074547 | 51 | 67 | 0.0 | 0.0 | 0.00 | 0.00 | 0.00 | 78 | 1006.2 |
| 20260508073947 | 51 | 67 | 5.0 | 5.0 | 0.00 | 0.00 | 0.00 | 77 | 1006.2 |
| 20260508073647 | 51 | 337 | 2.0 | 2.0 | 0.00 | 0.00 | 0.00 | 79 | 1006.0 |
| 20260508073350 | 51 | 67 | 2.0 | 2.0 | 0.00 | 0.00 | 0.00 | 79 | 1006.0 |
| 20260508073046 | 50 | 90 | 3.0 | 3.0 | 0.00 | 0.00 | 0.00 | 78 | 1006.0 |
| 20260508072747 | 50 | 90 | 4.0 | 4.0 | 0.00 | 0.00 | 0.00 | 78 | 1006.0 |
| 20260508072147 | 50 | 90 | 4.0 | 4.0 | 0.00 | 0.00 | 0.00 | 78 | 1005.7 |
| 20260508071847 | 50 | 90 | 5.0 | 5.0 | 0.00 | 0.00 | 0.00 | 79 | 1005.7 |
| 20260508071546 | 50 | 67 | 4.0 | 4.0 | 0.00 | 0.00 | 0.00 | 79 | 1005.7 |
| 20260508071250 | 50 | 90 | 0.0 | 0.0 | 0.00 | 0.00 | 0.00 | 79 | 1005.7 |
| 20260508070948 | 49 | 67 | 0.0 | 0.0 | 0.00 | 0.00 | 0.00 | 80 | 1005.7 |
| 20260508070647 | 49 | 90 | 2.0 | 2.0 | 0.00 | 0.00 | 0.00 | 78 | 1005.7 |
| 20260508070347 | 49 | 90 | 3.0 | 3.0 | 0.00 | 0.00 | 0.00 | 79 | 1005.7 |
| 20260508070047 | 49 | 90 | 4.0 | 4.0 | 0.00 | 0.00 | 0.00 | 80 | 1005.7 |
| 20260508065747 | 49 | 0 | 1.0 | 1.0 | 0.00 | 0.00 | 0.00 | 80 | 1005.7 |
| 20260508065147 | 48 | 337 | 0.0 | 0.0 | 0.00 | 0.00 | 0.00 | 81 | 1005.7 |
| 20260508064848 | 48 | 22 | 0.0 | 0.0 | 0.00 | 0.00 | 0.00 | 81 | 1005.7 |
| 20260508064548 | 48 | 67 | 0.0 | 0.0 | 0.00 | 0.00 | 0.00 | 81 | 1005.7 |
| 20260508064248 | 48 | 67 | 0.0 | 0.0 | 0.00 | 0.00 | 0.00 | 81 | 1005.5 |
| 20260508063947 | 48 | 337 | 0.0 | 0.0 | 0.00 | 0.00 | 0.00 | 81 | 1005.7 |
| 20260508063647 | 48 | 45 | 0.0 | 0.0 | 0.00 | 0.00 | 0.00 | 81 | 1005.5 |
| 20260508063350 | 47 | 0 | 1.0 | 1.0 | 0.00 | 0.00 | 0.00 | 81 | 1005.7 |
| 20260508062747 | 47 | 45 | 0.0 | 0.0 | 0.00 | 0.00 | 0.00 | 81 | 1005.2 |
| 20260508062447 | 47 | 337 | 3.0 | 3.0 | 0.00 | 0.00 | 0.00 | 81 | 1005.5 |
| 20260508062148 | 47 | 0 | 4.0 | 4.0 | 0.00 | 0.00 | 0.00 | 81 | 1005.2 |
| 20260508061847 | 47 | 0 | 3.0 | 3.0 | 0.00 | 0.00 | 0.00 | 81 | 1005.5 |
| 20260508061547 | 47 | 0 | 1.0 | 1.0 | 0.00 | 0.00 | 0.00 | 81 | 1005.2 |
| 20260508061250 | 47 | 22 | 1.0 | 1.0 | 0.00 | 0.00 | 0.00 | 82 | 1005.2 |
| 20260508060947 | 47 | 22 | 0.0 | 0.0 | 0.00 | 0.00 | 0.00 | 82 | 1005.2 |
| 20260508060647 | 47 | 337 | 2.0 | 2.0 | 0.00 | 0.00 | 0.00 | 82 | 1005.2 |
| 20260508060046 | 47 | 0 | 0.0 | 0.0 | 0.00 | 0.00 | 0.00 | 82 | 1005.2 |
| 20260508055748 | 47 | 337 | 0.0 | 0.0 | 0.00 | 0.00 | 0.00 | 82 | 1005.2 |
| 20260508055150 | 47 | 90 | 1.0 | 1.0 | 0.00 | 0.00 | 0.00 | 83 | 1005.2 |
| 20260508054848 | 47 | 90 | 0.0 | 0.0 | 0.00 | 0.00 | 0.00 | 83 | 1005.0 |
| 20260508054547 | 47 | 90 | 1.0 | 1.0 | 0.00 | 0.00 | 0.00 | 82 | 1005.2 |
| 20260508054248 | 46 | 0 | 1.0 | 1.0 | 0.00 | 0.00 | 0.00 | 83 | 1005.2 |
| 20260508053048 | 46 | 45 | 0.0 | 0.0 | 0.00 | 0.00 | 0.00 | 83 | 1005.0 |
| 20260508052747 | 46 | 45 | 2.0 | 2.0 | 0.00 | 0.00 | 0.00 | 83 | 1005.0 |
| 20260508052448 | 46 | 45 | 1.0 | 1.0 | 0.00 | 0.00 | 0.00 | 83 | 1004.7 |
| 20260508052147 | 46 | 22 | 1.0 | 1.0 | 0.00 | 0.00 | 0.00 | 84 | 1004.7 |
| 20260508051848 | 46 | 45 | 0.0 | 0.0 | 0.00 | 0.00 | 0.00 | 84 | 1004.7 |
| 20260508051547 | 46 | 0 | 1.0 | 2.0 | 0.00 | 0.00 | 0.00 | 84 | 1005.0 |
| 20260508051250 | 46 | 45 | 0.0 | 0.0 | 0.00 | 0.00 | 0.00 | 84 | 1005.0 |
| 20260508050947 | 46 | 67 | 0.0 | 0.0 | 0.00 | 0.00 | 0.00 | 85 | 1004.7 |
| 20260508050647 | 46 | 67 | 1.0 | 1.0 | 0.00 | 0.00 | 0.00 | 84 | 1004.7 |
| 20260508050348 | 46 | 90 | 2.0 | 2.0 | 0.00 | 0.00 | 0.00 | 84 | 1004.7 |
| 20260508050048 | 46 | 90 | 1.0 | 1.0 | 0.00 | 0.00 | 0.00 | 84 | 1004.7 |
| 20260508045748 | 45 | 90 | 4.0 | 4.0 | 0.00 | 0.00 | 0.00 | 84 | 1004.7 |
| 20260508045448 | 45 | 90 | 2.0 | 2.0 | 0.00 | 0.00 | 0.00 | 85 | 1004.7 |
| 20260508044847 | 45 | 90 | 2.0 | 2.0 | 0.00 | 0.00 | 0.00 | 85 | 1004.7 |
| 20260508044548 | 45 | 90 | 2.0 | 2.0 | 0.00 | 0.00 | 0.00 | 84 | 1004.7 |
| 20260508044246 | 45 | 90 | 2.0 | 2.0 | 0.00 | 0.00 | 0.00 | 84 | 1004.7 |
| 20260508043947 | 45 | 90 | 2.0 | 2.0 | 0.00 | 0.00 | 0.00 | 84 | 1004.5 |
| 20260508043647 | 45 | 90 | 3.0 | 3.0 | 0.00 | 0.00 | 0.00 | 84 | 1004.7 |
| 20260508043048 | 45 | 90 | 0.0 | 0.0 | 0.00 | 0.00 | 0.00 | 84 | 1004.7 |
| 20260508042747 | 45 | 90 | 1.0 | 1.0 | 0.00 | 0.00 | 0.00 | 84 | 1004.7 |
| 20260508042448 | 45 | 67 | 1.0 | 1.0 | 0.00 | 0.00 | 0.00 | 84 | 1004.5 |
| 20260508042148 | 45 | 90 | 0.0 | 0.0 | 0.00 | 0.00 | 0.00 | 84 | 1004.5 |
| 20260508041848 | 45 | 67 | 0.0 | 0.0 | 0.00 | 0.00 | 0.00 | 84 | 1004.5 |
| 20260508041548 | 45 | 90 | 0.0 | 0.0 | 0.00 | 0.00 | 0.00 | 84 | 1004.5 |
| 20260508040948 | 45 | 67 | 2.0 | 2.0 | 0.00 | 0.00 | 0.00 | 84 | 1004.5 |
| 20260508040647 | 45 | 90 | 1.0 | 1.0 | 0.00 | 0.00 | 0.00 | 84 | 1004.5 |
| 20260508040347 | 45 | 90 | 2.0 | 2.0 | 0.00 | 0.00 | 0.00 | 84 | 1004.2 |
| 20260508040047 | 45 | 90 | 3.0 | 3.0 | 0.00 | 0.00 | 0.00 | 84 | 1004.5 |
| 20260508035748 | 45 | 90 | 3.0 | 3.0 | 0.00 | 0.00 | 0.00 | 84 | 1004.5 |
| 20260508034848 | 45 | 67 | 0.0 | 0.0 | 0.00 | 0.00 | 0.00 | 83 | 1004.2 |
| 20260508034547 | 45 | 67 | 0.0 | 0.0 | 0.00 | 0.00 | 0.00 | 84 | 1004.2 |
| 20260508034247 | 45 | 22 | 0.0 | 0.0 | 0.00 | 0.00 | 0.00 | 83 | 1004.2 |
| 20260508033948 | 45 | 22 | 0.0 | 0.0 | 0.00 | 0.00 | 0.00 | 83 | 1004.2 |
| 20260508033647 | 45 | 0 | 0.0 | 0.0 | 0.00 | 0.00 | 0.00 | 84 | 1004.2 |
| 20260508033347 | 45 | 45 | 0.0 | 0.0 | 0.00 | 0.00 | 0.00 | 84 | 1004.2 |
| 20260508032747 | 45 | 337 | 0.0 | 0.0 | 0.00 | 0.00 | 0.00 | 84 | 1004.2 |
| 20260508032448 | 45 | 0 | 0.0 | 0.0 | 0.00 | 0.00 | 0.00 | 84 | 1004.2 |
| 20260508032148 | 45 | 337 | 1.0 | 1.0 | 0.00 | 0.00 | 0.00 | 83 | 1004.2 |
| 20260508031848 | 45 | 0 | 0.0 | 0.0 | 0.00 | 0.00 | 0.00 | 83 | 1004.2 |
| 20260508031548 | 45 | 0 | 0.0 | 0.0 | 0.00 | 0.00 | 0.00 | 83 | 1004.2 |
| 20260508031247 | 45 | 0 | 1.0 | 1.0 | 0.00 | 0.00 | 0.00 | 84 | 1004.2 |
| 20260508030648 | 45 | 45 | 0.0 | 0.0 | 0.00 | 0.00 | 0.00 | 84 | 1004.2 |
| 20260508030347 | 45 | 337 | 0.0 | 0.0 | 0.00 | 0.00 | 0.00 | 83 | 1004.2 |
| 20260508030047 | 45 | 337 | 1.0 | 1.0 | 0.00 | 0.00 | 0.00 | 84 | 1004.2 |
| 20260508025748 | 45 | 337 | 1.0 | 1.0 | 0.00 | 0.00 | 0.00 | 84 | 1004.2 |
| 20260508025447 | 45 | 0 | 1.0 | 1.0 | 0.00 | 0.00 | 0.00 | 83 | 1004.2 |
| 20260508025147 | 45 | 0 | 1.0 | 1.0 | 0.00 | 0.00 | 0.00 | 83 | 1004.2 |
| 20260508024850 | 45 | 0 | 1.0 | 1.0 | 0.00 | 0.00 | 0.00 | 83 | 1004.2 |
| 20260508024547 | 45 | 0 | 0.0 | 0.0 | 0.00 | 0.00 | 0.00 | 83 | 1004.2 |
| 20260508024247 | 45 | 337 | 0.0 | 0.0 | 0.00 | 0.00 | 0.00 | 84 | 1004.2 |
| 20260508023948 | 45 | 337 | 0.0 | 0.0 | 0.00 | 0.00 | 0.00 | 84 | 1004.2 |
| 20260508023648 | 45 | 45 | 0.0 | 0.0 | 0.00 | 0.00 | 0.00 | 83 | 1004.2 |
| 20260508023346 | 45 | 22 | 0.0 | 0.0 | 0.00 | 0.00 | 0.00 | 84 | 1004.2 |
| 20260508023048 | 45 | 90 | 0.0 | 0.0 | 0.00 | 0.00 | 0.00 | 83 | 1004.2 |
| 20260508022750 | 45 | 67 | 0.0 | 0.0 | 0.00 | 0.00 | 0.00 | 83 | 1004.2 |
| 20260508022447 | 45 | 337 | 1.0 | 1.0 | 0.00 | 0.00 | 0.00 | 83 | 1004.0 |
| 20260508022147 | 45 | 90 | 0.0 | 0.0 | 0.00 | 0.00 | 0.00 | 83 | 1004.2 |
| 20260508021847 | 45 | 90 | 0.0 | 0.0 | 0.00 | 0.00 | 0.00 | 83 | 1004.2 |
| 20260508021548 | 45 | 90 | 0.0 | 0.0 | 0.00 | 0.00 | 0.00 | 83 | 1004.2 |
| 20260508021248 | 45 | 90 | 0.0 | 0.0 | 0.00 | 0.00 | 0.00 | 83 | 1004.0 |
| 20260508020950 | 45 | 0 | 0.0 | 0.0 | 0.00 | 0.00 | 0.00 | 83 | 1004.0 |
| 20260508020647 | 45 | 337 | 0.0 | 0.0 | 0.00 | 0.00 | 0.00 | 83 | 1004.2 |
| 20260508020347 | 45 | 0 | 0.0 | 0.0 | 0.00 | 0.00 | 0.00 | 83 | 1004.2 |
| 20260508020047 | 45 | 0 | 0.0 | 0.0 | 0.00 | 0.00 | 0.00 | 83 | 1004.0 |
| 20260508015748 | 45 | 0 | 0.0 | 0.0 | 0.00 | 0.00 | 0.00 | 83 | 1004.0 |
| 20260508015448 | 45 | 45 | 1.0 | 1.0 | 0.00 | 0.00 | 0.00 | 83 | 1004.2 |
| 20260508015148 | 45 | 90 | 0.0 | 0.0 | 0.00 | 0.00 | 0.00 | 83 | 1004.2 |
| 20260508014850 | 45 | 90 | 0.0 | 0.0 | 0.00 | 0.00 | 0.00 | 83 | 1004.2 |
| 20260508014548 | 45 | 0 | 0.0 | 0.0 | 0.00 | 0.00 | 0.00 | 83 | 1004.2 |
| 20260508014247 | 45 | 22 | 0.0 | 0.0 | 0.00 | 0.00 | 0.00 | 83 | 1004.2 |
| 20260508013948 | 45 | 0 | 0.0 | 0.0 | 0.00 | 0.00 | 0.00 | 83 | 1004.2 |
| 20260508013647 | 45 | 0 | 0.0 | 0.0 | 0.00 | 0.00 | 0.00 | 84 | 1004.2 |
| 20260508013348 | 45 | 22 | 0.0 | 0.0 | 0.00 | 0.00 | 0.00 | 84 | 1004.2 |
| 20260508013048 | 45 | 67 | 0.0 | 0.0 | 0.00 | 0.00 | 0.00 | 83 | 1004.2 |
| 20260508012750 | 45 | 67 | 0.0 | 0.0 | 0.00 | 0.00 | 0.00 | 84 | 1004.2 |
| 20260508012448 | 45 | 90 | 0.0 | 0.0 | 0.00 | 0.00 | 0.00 | 83 | 1004.2 |
| 20260508012148 | 45 | 90 | 0.0 | 0.0 | 0.00 | 0.00 | 0.00 | 84 | 1004.2 |
| 20260508011848 | 45 | 90 | 1.0 | 1.0 | 0.00 | 0.00 | 0.00 | 83 | 1004.2 |
| 20260508011548 | 45 | 90 | 1.0 | 1.0 | 0.00 | 0.00 | 0.00 | 84 | 1004.2 |
| 20260508011248 | 45 | 90 | 0.0 | 0.0 | 0.00 | 0.00 | 0.00 | 83 | 1004.2 |
| 20260508010947 | 45 | 90 | 0.0 | 0.0 | 0.00 | 0.00 | 0.00 | 84 | 1004.2 |
| 20260508010348 | 45 | 67 | 0.0 | 0.0 | 0.00 | 0.00 | 0.00 | 84 | 1004.2 |
| 20260508010047 | 45 | 90 | 0.0 | 0.0 | 0.00 | 0.00 | 0.00 | 84 | 1004.2 |
| 20260508005747 | 45 | 90 | 0.0 | 0.0 | 0.00 | 0.00 | 0.00 | 84 | 1004.2 |
| 20260508005448 | 45 | 67 | 0.0 | 0.0 | 0.00 | 0.00 | 0.00 | 84 | 1004.2 |
| 20260508005148 | 45 | 337 | 0.0 | 0.0 | 0.00 | 0.00 | 0.00 | 84 | 1004.2 |
| 20260508004848 | 45 | 67 | 0.0 | 0.0 | 0.00 | 0.00 | 0.00 | 84 | 1004.2 |
| 20260508004248 | 45 | 90 | 0.0 | 0.0 | 0.00 | 0.00 | 0.00 | 84 | 1004.5 |
| 20260508003648 | 45 | 90 | 1.0 | 1.0 | 0.00 | 0.00 | 0.00 | 84 | 1004.5 |
| 20260508003347 | 45 | 90 | 0.0 | 0.0 | 0.00 | 0.00 | 0.00 | 84 | 1004.2 |
| 20260508003047 | 45 | 67 | 0.0 | 0.0 | 0.00 | 0.00 | 0.00 | 84 | 1004.2 |
| 20260508002747 | 45 | 67 | 3.0 | 3.0 | 0.00 | 0.00 | 0.00 | 84 | 1004.2 |
| 20260508002450 | 45 | 67 | 2.0 | 2.0 | 0.00 | 0.00 | 0.00 | 84 | 1004.2 |
| 20260508002147 | 45 | 90 | 2.0 | 2.0 | 0.00 | 0.00 | 0.00 | 84 | 1004.2 |
| 20260508001847 | 45 | 45 | 1.0 | 1.0 | 0.00 | 0.00 | 0.00 | 84 | 1004.2 |
| 20260508001547 | 45 | 67 | 2.0 | 2.0 | 0.00 | 0.00 | 0.00 | 84 | 1004.2 |
| 20260508001248 | 45 | 90 | 5.0 | 5.0 | 0.00 | 0.00 | 0.00 | 84 | 1004.2 |
| 20260508000948 | 45 | 90 | 2.0 | 2.0 | 0.00 | 0.00 | 0.00 | 84 | 1004.2 |
| 20260508000648 | 45 | 90 | 2.0 | 2.0 | 0.00 | 0.00 | 0.00 | 83 | 1004.2 |
| 20260508000048 | 45 | 90 | 2.0 | 2.0 | 0.00 | 0.00 | 0.00 | 83 | 1004.2 |
| 20260507235747 | 45 | 90 | 2.0 | 2.0 | 0.00 | 0.00 | 0.00 | 83 | 1004.2 |
| 20260507235448 | 45 | 90 | 0.0 | 0.0 | 0.00 | 0.00 | 0.00 | 83 | 1004.2 |
| 20260507235147 | 45 | 45 | 0.0 | 0.0 | 0.00 | 0.00 | 0.00 | 83 | 1004.2 |
| 20260507234848 | 45 | 112 | 0.0 | 0.0 | 0.00 | 0.00 | 0.00 | 83 | 1004.2 |
| 20260507234547 | 45 | 337 | 0.0 | 0.0 | 0.00 | 0.00 | 0.00 | 83 | 1004.2 |
| 20260507233947 | 45 | 67 | 1.0 | 1.0 | 0.00 | 0.00 | 0.00 | 82 | 1004.2 |
| 20260507233647 | 45 | 90 | 0.0 | 0.0 | 0.00 | 0.00 | 0.00 | 82 | 1004.2 |
| 20260507233346 | 45 | 337 | 0.0 | 0.0 | 0.00 | 0.00 | 0.00 | 83 | 1004.2 |
| 20260507233048 | 45 | 90 | 0.0 | 0.0 | 0.00 | 0.00 | 0.00 | 82 | 1004.2 |
| 20260507232747 | 45 | 337 | 0.0 | 0.0 | 0.00 | 0.00 | 0.00 | 82 | 1004.2 |
| 20260507232147 | 45 | 337 | 0.0 | 0.0 | 0.00 | 0.00 | 0.00 | 83 | 1004.2 |
| 20260507231848 | 45 | 90 | 0.0 | 0.0 | 0.00 | 0.00 | 0.00 | 83 | 1004.2 |
| 20260507231548 | 45 | 337 | 0.0 | 0.0 | 0.00 | 0.00 | 0.00 | 83 | 1004.2 |
| 20260507231247 | 45 | 90 | 0.0 | 0.0 | 0.00 | 0.00 | 0.00 | 83 | 1004.2 |
| 20260507230947 | 45 | 337 | 0.0 | 0.0 | 0.00 | 0.00 | 0.00 | 83 | 1004.2 |
| 20260507230647 | 45 | 90 | 0.0 | 0.0 | 0.00 | 0.00 | 0.00 | 83 | 1004.2 |
| 20260507230350 | 45 | 135 | 0.0 | 0.0 | 0.00 | 0.00 | 0.00 | 83 | 1004.5 |
| 20260507230046 | 46 | 135 | 0.0 | 0.0 | 0.00 | 0.00 | 0.00 | 83 | 1004.5 |
| 20260507225747 | 46 | 90 | 0.0 | 0.0 | 0.00 | 0.00 | 0.00 | 83 | 1004.5 |
| 20260507225147 | 46 | 90 | 0.0 | 0.0 | 0.00 | 0.00 | 0.00 | 83 | 1004.2 |
| 20260507224847 | 46 | 90 | 0.0 | 0.0 | 0.00 | 0.00 | 0.00 | 83 | 1004.2 |
| 20260507224247 | 46 | 112 | 0.0 | 0.0 | 0.00 | 0.00 | 0.00 | 83 | 1004.2 |
| 20260507223948 | 46 | 337 | 0.0 | 0.0 | 0.00 | 0.00 | 0.00 | 83 | 1004.2 |
| 20260507223647 | 46 | 112 | 0.0 | 0.0 | 0.00 | 0.00 | 0.00 | 83 | 1004.2 |
| 20260507223348 | 46 | 112 | 0.0 | 0.0 | 0.00 | 0.00 | 0.00 | 83 | 1004.2 |
| 20260507223047 | 46 | 112 | 0.0 | 0.0 | 0.00 | 0.00 | 0.00 | 83 | 1004.5 |
| 20260507222750 | 46 | 90 | 0.0 | 0.0 | 0.00 | 0.00 | 0.00 | 82 | 1004.2 |
| 20260507222448 | 46 | 337 | 0.0 | 0.0 | 0.00 | 0.00 | 0.00 | 83 | 1004.2 |
| 20260507222147 | 46 | 90 | 1.0 | 1.0 | 0.00 | 0.00 | 0.00 | 82 | 1004.2 |
| 20260507221846 | 46 | 90 | 2.0 | 2.0 | 0.00 | 0.00 | 0.00 | 82 | 1004.2 |
| 20260507221548 | 46 | 90 | 1.0 | 1.0 | 0.00 | 0.00 | 0.00 | 82 | 1004.5 |
| 20260507221248 | 46 | 90 | 1.0 | 1.0 | 0.00 | 0.00 | 0.00 | 83 | 1004.2 |
| 20260507220947 | 46 | 90 | 0.0 | 0.0 | 0.00 | 0.00 | 0.00 | 83 | 1004.5 |
| 20260507220650 | 46 | 90 | 0.0 | 0.0 | 0.00 | 0.00 | 0.00 | 83 | 1004.5 |
| 20260507220348 | 46 | 90 | 0.0 | 0.0 | 0.00 | 0.00 | 0.00 | 83 | 1004.5 |
| 20260507220047 | 46 | 90 | 0.0 | 0.0 | 0.00 | 0.00 | 0.00 | 83 | 1004.2 |
| 20260507215748 | 46 | 90 | 0.0 | 0.0 | 0.00 | 0.00 | 0.56 | 82 | 1004.5 |
| 20260507215448 | 46 | 337 | 1.0 | 1.0 | 0.00 | 0.00 | 0.56 | 82 | 1004.2 |
| 20260507215150 | 46 | 90 | 1.0 | 1.0 | 0.00 | 0.00 | 0.56 | 83 | 1004.5 |
| 20260507214847 | 46 | 90 | 1.0 | 1.0 | 0.00 | 0.00 | 0.56 | 82 | 1004.2 |
| 20260507214548 | 46 | 90 | 1.0 | 1.0 | 0.00 | 0.00 | 0.56 | 82 | 1004.2 |
| 20260507214246 | 46 | 90 | 2.0 | 2.0 | 0.00 | 0.00 | 0.56 | 82 | 1004.2 |
| 20260507213947 | 46 | 90 | 0.0 | 0.0 | 0.00 | 0.00 | 0.56 | 82 | 1004.2 |
| 20260507213648 | 46 | 90 | 0.0 | 0.0 | 0.00 | 0.00 | 0.56 | 82 | 1004.2 |
| 20260507213350 | 46 | 90 | 0.0 | 0.0 | 0.00 | 0.00 | 0.56 | 82 | 1004.2 |